Wind_Speed
38 37 35 33 32 33 33 33 34 37 37 36 35 36 32 34 30 30 31 36 32 29 31 29 31 29 32 37 32 32 33 32 34 34 34 31 32 33
31 30 29 30 30 30 30 32 33 36 38 37 36 32 33 29 31 30 30 27 29 31 25 27 29 28 31 29 28 29 28 28 29 30 30 30 30 31
32 31 31 31 32 31 31 32 33 32 34 34 32 30 29 29 30 28 29 25 28 24 25 26 25 27 26 26 27 28 30 31 32 33 33 34 34 34
32 32 31 31 30 30 29 29 28 28 28 27 30 28 27 24 25 24 26 23 24 22 23 25 25 27 28 29 30 32 33 35 35 34 32 32 32 33
32 30 30 29 27 26 23 24 25 26 25 29 25 25 22 23 23 21 20 20 21 22 24 26 28 30 31 32 34 31 25 22 23 24 24 24 25 25
29 28 26 24 22 20 21 23 21 20 17 14 16 16 17 18 19 22 23 25 27 28 30 31 32 33 31 24 19 19 21 23 24 25 26 26 26 25
25 23 20 18 17 18 16 15 14 12 11 11 13 16 18 22 24 27 29 31 33 33 33 34 28 21 17 18 20 20 21 21 22 22 23 24 25 25
18 16 16 14 15 15 13 11 9 9 12 14 18 21 24 26 29 31 32 34 35 32 28 22 14 17 19 19 18 20 21 21 22 21 20 20 22 23
15 14 12 12 12 11 9 10 11 13 16 19 21 24 26 28 30 31 32 31 28 20 14 17 16 18 19 19 19 21 23 23 23 21 21 21 22 23
12 11 10 9 10 10 11 13 14 17 19 22 24 26 28 30 31 31 28 24 18 12 13 16 18 18 21 21 22 23 24 25 25 24 23 23 24 24
9 7 8 10 11 12 14 15 17 19 21 22 25 27 28 29 29 27 21 16 15 14 15 16 18 17 20 22 23 25 27 27 29 28 26 25 25 24
7 8 10 11 13 14 16 17 19 20 21 22 24 25 26 26 25 21 16 15 17 18 19 18 20 20 19 21 23 27 29 31 32 34 32 29 28 26
9 10 11 13 14 15 17 18 19 20 20 22 23 23 24 22 20 17 17 19 19 20 22 21 21 24 23 22 19 24 29 31 34 35 36 32 29 29
10 12 12 13 14 15 17 17 18 19 20 20 21 22 22 20 18 18 20 20 21 22 24 25 24 26 27 26 24 23 26 30 32 34 34 31 29 29
12 12 12 14 15 16 16 17 17 18 19 20 20 21 21 20 20 21 22 23 23 26 27 29 29 30 30 29 31 26 29 26 27 29 31 28 27 27
12 12 13 14 15 16 16 17 18 19 20 21 21 21 21 21 22 23 25 26 26 29 32 33 34 34 32 31 32 30 30 31 26 27 28 25 25 26
13 13 14 15 15 16 17 18 19 20 21 22 22 22 22 22 24 26 27 28 29 29 30 37 40 39 37 34 32 31 32 28 29 28 28 27 24 26
14 14 15 16 16 16 18 20 21 22 23 23 23 24 24 24 26 28 30 31 31 32 33 35 37 40 39 34 36 35 32 30 31 30 30 31 26 24
15 15 16 17 17 17 19 21 23 24 24 24 25 26 26 26 28 29 31 33 34 34 34 36 38 42 41 38 30 32 33 31 30 29 29 31 29 25
17 17 17 18 18 19 21 23 25 26 26 25 26 27 28 28 29 30 32 34 36 36 36 35 37 42 42 42 37 24 29 31 31 30 29 30 30 29
20 20 20 20 21 21 23 25 26 28 28 28 28 29 30 31 31 32 34 35 37 38 38 35 35 40 40 40 38 30 24 28 30 31 30 31 30 30
23 23 24 23 23 24 25 27 28 30 31 31 30 31 32 33 33 33 35 37 37 39 40 38 36 37 38 39 37 34 28 25 27 30 31 33 33 34
27 26 27 27 27 26 27 28 30 32 34 33 32 32 33 34 35 36 37 38 39 39 40 39 36 35 36 37 37 34 31 29 27 27 27 29 31 34
Wind_Direction
276 277 276 276 279 278 280 282 284 287 290 292 290 291 291 290 291 289 288 290 283 283 291 273 290 289 284 282 288 284 282 285 283 284 284 284 284 284
275 276 278 280 280 279 280 281 282 284 286 289 290 291 291 292 288 286 283 287 289 285 288 290 294 292 294 290 291 290 290 289 289 287 286 286 285 284
276 279 279 277 278 279 281 281 281 282 283 286 289 287 290 294 294 289 288 291 296 294 290 295 296 294 291 292 292 292 293 292 290 291 289 288 287 284
278 278 278 279 281 282 282 284 285 286 285 286 289 289 292 293 305 306 298 297 303 308 303 297 293 292 293 294 293 292 291 290 289 289 290 290 289 286
276 277 277 280 280 281 283 288 289 290 289 289 290 289 291 297 304 306 311 308 303 299 294 291 290 289 291 290 288 288 292 295 297 300 302 302 300 299
273 274 275 276 274 279 285 292 293 294 292 293 299 302 299 303 306 306 304 301 297 295 292 291 291 291 290 288 291 295 298 299 299 299 301 301 301 299
268 270 269 267 276 282 286 290 293 296 306 305 305 308 308 307 304 302 300 297 294 293 294 292 292 284 284 290 294 291 290 294 297 299 300 299 298 296
260 258 258 268 273 277 281 286 290 304 306 307 308 307 307 305 304 301 298 295 293 294 291 285 274 284 289 290 290 290 293 298 301 302 300 298 297 296
250 251 257 264 268 273 280 288 299 307 304 306 308 310 310 306 303 303 299 295 291 290 272 280 285 289 292 297 297 298 300 303 306 306 305 304 305 303
239 243 253 258 267 275 286 295 303 303 306 310 310 310 309 308 306 303 300 294 284 271 277 284 293 296 299 303 303 303 304 305 305 304 304 304 302 300
231 238 252 264 274 283 292 300 304 306 306 309 310 311 311 310 309 306 299 285 284 286 288 288 290 295 298 303 305 305 305 305 304 304 305 306 304 303
234 248 260 271 281 291 298 303 305 307 311 313 314 313 313 313 312 306 292 287 290 292 294 296 296 299 299 301 304 301 302 303 303 305 306 307 306 304
246 261 272 279 288 298 302 304 307 310 314 316 317 317 317 317 311 300 293 294 292 294 295 297 298 298 299 299 298 294 295 296 297 298 300 303 304 302
257 267 276 289 297 300 301 304 307 310 313 316 319 319 319 315 305 295 293 293 294 295 296 299 298 297 300 301 301 297 291 289 290 291 293 299 301 301
264 274 286 294 296 298 302 305 308 311 314 316 318 317 317 311 301 295 295 295 295 295 295 296 298 300 301 303 305 308 299 289 288 285 289 296 297 298
270 281 289 293 297 303 306 308 311 312 314 316 315 314 313 310 303 298 295 295 294 294 296 296 297 298 299 302 305 308 302 301 296 291 292 295 298 298
275 284 290 296 303 308 309 309 310 312 313 314 313 313 312 310 305 302 297 294 294 292 293 297 300 300 300 302 303 305 303 300 296 296 298 298 299 297
276 284 293 301 303 306 309 311 312 313 313 313 312 311 311 310 308 305 301 299 296 294 293 293 293 294 295 300 305 305 304 300 296 298 299 299 300 295
277 285 292 296 299 306 311 313 312 311 311 312 312 310 310 311 310 308 305 302 300 298 296 295 295 293 294 296 296 301 299 292 290 290 291 292 298 300
274 281 286 291 297 305 311 314 314 311 311 311 311 310 310 310 309 308 305 303 301 300 298 296 294 292 295 297 298 298 294 293 292 292 292 293 298 300
272 276 282 288 295 302 307 312 315 315 312 310 310 310 309 308 309 308 306 305 303 302 300 297 292 290 291 292 295 297 293 291 291 291 293 295 297 299
272 275 280 285 291 297 302 308 313 314 313 312 310 309 308 309 309 308 307 306 304 303 302 300 296 292 291 292 294 296 294 289 287 288 292 296 301 304
273 276 280 283 288 292 297 302 308 313 313 312 311 310 309 310 310 310 309 307 305 303 302 300 297 294 291 291 291 293 293 291 289 282 282 288 292 294
Height
3119 3118 3118 3117 3116 3116 3115 3113 3111 3107 3106 3106 3105 3104 3103 3101 3100 3098 3096 3095 3093 3092 3090 3089 3088 3086 3084 3082 3081 3080 3079 3076 3076 3075 3075 3073 3073 3072
3111 3111 3110 3109 3109 3108 3107 3106 3104 3102 3098 3097 3096 3095 3094 3092 3091 3089 3088 3086 3085 3082 3081 3081 3079 3078 3076 3074 3071 3071 3069 3069 3068 3068 3067 3066 3065 3064
3103 3103 3102 3102 3101 3100 3099 3098 3095 3094 3091 3089 3087 3087 3085 3083 3082 3080 3079 3078 3076 3074 3074 3073 3072 3070 3069 3067 3065 3064 3062 3061 3060 3059 3058 3057 3056 3055
3094 3094 3094 3093 3092 3091 3090 3089 3087 3085 3083 3082 3081 3079 3078 3077 3075 3073 3072 3071 3069 3068 3067 3066 3065 3063 3061 3060 3058 3056 3054 3054 3053 3052 3049 3048 3046 3045
3086 3086 3086 3085 3085 3084 3083 3082 3080 3078 3076 3075 3073 3072 3071 3071 3069 3068 3066 3066 3064 3063 3061 3060 3058 3056 3054 3052 3050 3049 3048 3046 3045 3043 3041 3040 3039 3038
3078 3078 3078 3079 3078 3078 3077 3075 3073 3071 3070 3070 3069 3068 3067 3066 3064 3062 3062 3060 3058 3056 3054 3052 3049 3047 3046 3044 3044 3043 3041 3040 3038 3037 3035 3034 3032 3030
3070 3072 3072 3073 3073 3072 3071 3070 3069 3069 3067 3066 3066 3064 3063 3061 3059 3057 3055 3053 3049 3048 3046 3042 3042 3039 3039 3038 3037 3036 3035 3033 3032 3030 3028 3026 3024 3022
3064 3065 3067 3067 3068 3067 3067 3066 3066 3065 3065 3063 3061 3059 3057 3055 3052 3050 3047 3044 3041 3040 3038 3035 3035 3034 3033 3033 3032 3029 3027 3025 3024 3023 3021 3018 3016 3015
3060 3062 3062 3063 3064 3064 3063 3063 3062 3061 3060 3058 3056 3054 3051 3049 3046 3042 3039 3036 3033 3033 3032 3030 3031 3029 3028 3027 3025 3022 3019 3018 3017 3015 3014 3012 3010 3007
3057 3058 3058 3060 3060 3060 3060 3059 3057 3057 3055 3052 3050 3047 3045 3041 3038 3034 3031 3028 3027 3028 3028 3026 3025 3024 3022 3020 3018 3015 3013 3011 3009 3008 3007 3005 3003 3000
3053 3054 3056 3057 3057 3057 3056 3054 3053 3052 3050 3047 3044 3041 3038 3035 3031 3027 3025 3024 3023 3024 3024 3022 3020 3020 3017 3015 3012 3009 3006 3004 3002 3000 2999 2997 2995 2993
3050 3052 3054 3054 3054 3052 3051 3049 3048 3046 3043 3041 3038 3035 3032 3028 3024 3022 3021 3021 3020 3019 3018 3018 3015 3014 3014 3010 3008 3003 3000 2997 2994 2991 2989 2988 2986 2984
3049 3050 3051 3050 3049 3048 3046 3045 3043 3040 3038 3035 3033 3030 3026 3022 3020 3018 3018 3017 3016 3014 3013 3012 3011 3008 3007 3005 3005 2999 2994 2991 2987 2984 2981 2980 2978 2975
3045 3046 3046 3045 3044 3043 3042 3040 3038 3035 3033 3030 3028 3025 3021 3018 3016 3015 3014 3013 3011 3009 3006 3004 3003 3001 2999 2997 2996 2995 2990 2985 2982 2978 2974 2972 2970 2966
3042 3042 3041 3041 3040 3039 3037 3035 3033 3030 3028 3025 3022 3019 3016 3013 3012 3010 3009 3007 3005 3002 3000 2997 2995 2993 2990 2988 2985 2985 2979 2979 2975 2971 2967 2966 2963 2959
3038 3038 3037 3037 3036 3034 3031 3030 3028 3025 3023 3020 3018 3015 3011 3008 3006 3004 3002 3000 2999 2995 2991 2988 2985 2984 2982 2980 2977 2975 2970 2966 2966 2962 2959 2958 2955 2951
3033 3033 3033 3032 3030 3028 3027 3025 3023 3020 3017 3015 3012 3009 3005 3002 3000 2997 2995 2993 2991 2989 2985 2978 2974 2973 2971 2971 2969 2966 2961 2959 2955 2952 2950 2949 2948 2944
3030 3029 3028 3027 3025 3024 3022 3020 3017 3015 3012 3009 3006 3003 2999 2996 2993 2990 2987 2984 2982 2980 2978 2974 2969 2964 2961 2963 2957 2954 2952 2948 2945 2943 2941 2938 2939 2938
3025 3024 3023 3022 3021 3019 3017 3014 3011 3009 3006 3003 2999 2996 2993 2990 2986 2983 2980 2976 2973 2970 2968 2964 2959 2953 2950 2950 2954 2948 2942 2940 2937 2936 2933 2930 2928 2929
3019 3019 3018 3017 3015 3013 3011 3008 3005 3002 2999 2996 2992 2989 2986 2982 2979 2976 2972 2968 2964 2961 2959 2955 2950 2942 2939 2936 2936 2943 2934 2929 2927 2926 2924 2922 2920 2918
3013 3013 3012 3011 3009 3007 3004 3001 2998 2995 2992 2989 2985 2982 2978 2975 2972 2968 2964 2960 2955 2951 2948 2946 2941 2934 2930 2927 2925 2927 2928 2922 2918 2915 2914 2911 2910 2908
3007 3007 3005 3004 3002 3000 2998 2995 2992 2988 2984 2981 2978 2974 2971 2967 2963 2959 2955 2950 2946 2941 2936 2933 2930 2925 2921 2916 2915 2914 2916 2915 2911 2907 2905 2901 2898 2894
2999 2999 2998 2996 2995 2993 2991 2988 2985 2981 2976 2973 2969 2966 2962 2959 2954 2950 2945 2940 2935 2931 2926 2921 2919 2915 2912 2908 2904 2904 2903 2903 2901 2900 2899 2894 2892 2889